Location: B�retswil
(47.3376°N, 8.8534°E)
Time: 21:24:36
(UTC+00:00)

COSMOS 2428 - Pass Details

Date: 03 March 2021
Orbit: 845 x 858 km, 70.9° (Epoch: 14 April)

Event Time Altitude Azimuth Distance (km) Brightness Sun altitude
Rises 19:16:46 0° 190° (S) 3,391 5.8 -21.6°
Reaches altitude 10° 19:19:14 10° 185° (S) 2,461 5.0 -22.1°
Maximum altitude 19:24:42 53° 110° (ESE) 1,035 2.7 -22.9°
Enters shadow 19:24:45 53° 108° (ESE) 1,035 2.7 -22.9°
Exits shadow 19:32:04 - 32° (NNE) 3,169 5.5 -24.1°
Sets 19:32:44 0° 31° (NNE) 3,423 5.7 -24.2°
